(74) Galatea
ephemeris date magn radius delta ra dec elong phase
Today27 Jun 202615.03.132 AU3.863 AU09h00m+14°17'38.5°11.7°
Opposition25 Mar 202713.63.433 AU2.436 AU12h15m-02°59'178.7°0.4°
(74) Galatea - 2026-06-27
astro.vanbuitenen.nl


 
-1 year
-1 month
-1 day
Now
+1 day
+1 month
+1 year

The interactive orbit chart above shows the body's path through the solar system and its position at the given date. Green and blue lines are shown perpendicular to the ecliptic plane: Green if the path is above the ecliptic plane, blue if it is below. (Left-click and drag to rotate the view; Right-click and drag to move the view; Use scroll wheel to zoom in our out.)

The orbital elements of Galatea are:

            e (Eccentricity)                : 0.2375007
            a (Semimajor axis)              : 2.7815637
            i (Inclination)                 : 4.07294
            Ω (Longitude of ascending node) : 196.97572
            ω (Argument of perihelion)      : 175.02331
            M (Mean anomaly)                : 106.71624
            Epoch                           : 2026 Jun 09

            L (Longitude of perihelion)     : 192.01154
            B (Latitude of perihelion)      : 0.35303
            P (Orbital period in years)     : 4.64            
        

The light curve chart below shows the estimated development of the minor planet's magnitude.


The all-sky chart below shows the path of the minor planet over the same period as the light curve. The current position is marked yellow.





The following chart shows the path of the minor planet in the next few days. The field of view is optimized for (~10x50) binoculars and finderscopes.




Ephemerides:
Date       Time       RA (2000)    DEC (2000)    delta   radius  elong  phase   PA    magn
2026-06-27 00:00 UT   09 00 34.9   +14 17 35     3.863    3.132   38.5   11.7   110   15.0 
2026-06-27 12:37 UT   09 01 16.7   +14 14 58     3.869    3.133   38.2   11.6   110   15.0 
2026-06-28 00:00 UT   09 01 54.4   +14 12 36     3.874    3.134   37.9   11.5   110   15.0 
2026-06-29 00:00 UT   09 03 13.9   +14 07 35     3.884    3.136   37.3   11.3   110   15.0 
2026-06-30 00:00 UT   09 04 33.6   +14 02 30     3.894    3.138   36.6   11.1   110   15.0 
2026-07-01 00:00 UT   09 05 53.3   +13 57 22     3.904    3.140   36.0   11.0   110   15.0 
2026-07-02 00:00 UT   09 07 13.1   +13 52 11     3.914    3.141   35.4   10.8   110   15.0 
2026-07-03 00:00 UT   09 08 33.0   +13 46 58     3.924    3.143   34.8   10.6   111   15.0 
2026-07-04 00:00 UT   09 09 53.0   +13 41 41     3.934    3.145   34.2   10.5   111   15.0 
2026-07-05 00:00 UT   09 11 13.0   +13 36 22     3.944    3.147   33.6   10.3   111   15.0 
2026-07-06 00:00 UT   09 12 33.1   +13 30 59     3.953    3.149   32.9   10.1   111   15.0 
2026-07-07 00:00 UT   09 13 53.3   +13 25 34     3.962    3.151   32.3    9.9   111   15.0 
2026-07-08 00:00 UT   09 15 13.5   +13 20 06     3.972    3.152   31.7    9.8   111   15.0 
2026-07-09 00:00 UT   09 16 33.8   +13 14 35     3.981    3.154   31.1    9.6   112   15.0 
2026-07-10 00:00 UT   09 17 54.1   +13 09 01     3.990    3.156   30.5    9.4   112   15.0 
2026-07-11 00:00 UT   09 19 14.5   +13 03 24     3.998    3.158   29.9    9.2   112   15.0 
2026-07-12 00:00 UT   09 20 34.9   +12 57 44     4.007    3.159   29.3    9.0   112   15.0 
2026-07-13 00:00 UT   09 21 55.4   +12 52 02     4.016    3.161   28.6    8.9   112   15.0 
2026-07-14 00:00 UT   09 23 15.9   +12 46 17     4.024    3.163   28.0    8.7   113   15.0 
2026-07-15 00:00 UT   09 24 36.5   +12 40 30     4.032    3.165   27.4    8.5   113   15.0 
2026-07-16 00:00 UT   09 25 57.0   +12 34 39     4.040    3.166   26.8    8.3   113   15.0 
2026-07-17 00:00 UT   09 27 17.6   +12 28 46     4.048    3.168   26.2    8.1   113   15.0 
2026-07-18 00:00 UT   09 28 38.2   +12 22 51     4.056    3.170   25.6    8.0   113   15.0 
2026-07-19 00:00 UT   09 29 58.8   +12 16 53     4.064    3.172   25.0    7.8   114   15.0 
2026-07-20 00:00 UT   09 31 19.4   +12 10 53     4.071    3.173   24.4    7.6   114   15.0 
2026-07-21 00:00 UT   09 32 40.0   +12 04 50     4.079    3.175   23.8    7.4   114   15.0 
2026-07-22 00:00 UT   09 34 00.7   +11 58 45     4.086    3.177   23.2    7.2   114   15.0 


    Terminology:
            
    delta:  distance between minor planet and earth in AU
    radius: distance between minor planet and sun in AU
    magn:   magnitude (brightness) estimate    
    ra:     right ascension in hours (24h = 360deg)
    dec:    declination in degrees
    elong:  elongation in degrees (angle sun-earth-minor planet)    
    phase:  phase angle in degrees (angle sun-minor planet-earth)        
    AU:     Astronomical Unit (mean distance between earth and sun: 149597870.7 km
    

Orbital elements provided by the MPC (Minor Planet Center).
Calculations by a modified version of AAPlus, a C# implementation of the AA+ project by PJ Naughter from the algorithms presented in the book "Astronomical Algorithms" by Jean Meeus.
NGC2000 dso catalog and star labels from VizieR as provided by the Strasbourg astronomical Data Center.
Tycho2 catalog from the ESO archive.